Time,TemperatureF,DewpointF,PressureIn,WindDirection,WindDirectionDegrees,WindSpeedMPH,WindSpeedGustMPH,Humidity,HourlyPrecipIn,Conditions,Clouds,dailyrainin,SoftwareType,DateUTC
2013-05-14 00:01:00,67.6,47.7,30.72,South,186,4.0,10.0,49,0.00,,,0.00,Weather View 32 v70,2013-05-14 05:01:00,
2013-05-14 00:06:00,67.7,47.2,30.73,SSW,208,6.0,10.0,48,0.00,,,0.00,Weather View 32 v70,2013-05-14 05:06:00,
2013-05-14 00:11:00,67.6,47.2,30.73,SSW,208,5.0,10.0,48,0.00,,,0.00,Weather View 32 v70,2013-05-14 05:11:00,
2013-05-14 00:16:00,67.5,47.1,30.72,South,186,6.0,10.0,48,0.00,,,0.00,Weather View 32 v70,2013-05-14 05:16:00,
2013-05-14 00:21:00,67.8,47.3,30.72,South,186,6.0,10.0,48,0.00,,,0.00,Weather View 32 v70,2013-05-14 05:21:00,
2013-05-14 00:26:00,67.6,47.2,30.72,SSW,208,5.0,11.0,48,0.00,,,0.00,Weather View 32 v70,2013-05-14 05:26:00,
2013-05-14 00:31:00,67.3,47.4,30.72,South,186,4.0,11.0,49,0.00,,,0.00,Weather View 32 v70,2013-05-14 05:31:00,
2013-05-14 00:36:00,67.2,47.3,30.72,SSW,208,4.0,11.0,49,0.00,,,0.00,Weather View 32 v70,2013-05-14 05:36:00,
2013-05-14 00:41:00,67.0,47.2,30.72,South,186,7.0,11.0,49,0.00,,,0.00,Weather View 32 v70,2013-05-14 05:41:00,
2013-05-14 00:46:00,66.5,47.2,30.72,SSW,208,4.0,11.0,50,0.00,,,0.00,Weather View 32 v70,2013-05-14 05:46:00,
2013-05-14 00:51:00,66.4,47.7,30.72,South,186,6.0,11.0,51,0.00,,,0.00,Weather View 32 v70,2013-05-14 05:51:00,
2013-05-14 00:56:00,66.2,47.5,30.72,SSW,208,3.0,11.0,51,0.00,,,0.00,Weather View 32 v70,2013-05-14 05:56:00,
2013-05-14 01:01:00,66.0,47.3,30.72,SSW,208,3.0,11.0,51,0.00,,,0.00,Weather View 32 v70,2013-05-14 06:01:00,
2013-05-14 01:06:00,65.7,47.5,30.72,SSE,163,3.0,11.0,52,0.00,,,0.00,Weather View 32 v70,2013-05-14 06:06:00,
2013-05-14 01:11:00,65.4,47.8,30.72,South,186,4.0,11.0,53,0.00,,,0.00,Weather View 32 v70,2013-05-14 06:11:00,
2013-05-14 01:16:00,65.3,47.7,30.72,South,186,5.0,11.0,53,0.00,,,0.00,Weather View 32 v70,2013-05-14 06:16:00,
2013-05-14 01:21:00,65.0,47.9,30.72,SSW,208,4.0,11.0,54,0.00,,,0.00,Weather View 32 v70,2013-05-14 06:21:00,
2013-05-14 01:26:00,64.8,48.2,30.71,SSW,208,4.0,10.0,55,0.00,,,0.00,Weather View 32 v70,2013-05-14 06:26:00,
2013-05-14 01:31:00,64.6,48.0,30.71,SSW,208,3.0,9.0,55,0.00,,,0.00,Weather View 32 v70,2013-05-14 06:31:00,
2013-05-14 01:36:00,64.5,48.4,30.71,SSW,208,3.0,9.0,56,0.00,,,0.00,Weather View 32 v70,2013-05-14 06:36:00,
2013-05-14 01:41:00,64.4,48.3,30.71,SSE,163,3.0,9.0,56,0.00,,,0.00,Weather View 32 v70,2013-05-14 06:41:00,
2013-05-14 01:46:00,64.1,48.5,30.71,SSW,208,3.0,9.0,57,0.00,,,0.00,Weather View 32 v70,2013-05-14 06:46:00,
2013-05-14 01:51:00,63.9,48.8,30.71,SSW,208,3.0,8.0,58,0.00,,,0.00,Weather View 32 v70,2013-05-14 06:51:00,
2013-05-14 01:56:00,63.7,48.6,30.70,SSW,208,2.0,8.0,58,0.00,,,0.00,Weather View 32 v70,2013-05-14 06:56:00,
2013-05-14 02:01:00,63.5,48.9,30.70,South,186,2.0,8.0,59,0.00,,,0.00,Weather View 32 v70,2013-05-14 07:01:00,
2013-05-14 02:06:00,63.2,49.0,30.70,South,186,3.0,8.0,60,0.00,,,0.00,Weather View 32 v70,2013-05-14 07:06:00,
2013-05-14 02:11:00,63.0,49.3,30.70,SSW,208,3.0,6.0,61,0.00,,,0.00,Weather View 32 v70,2013-05-14 07:11:00,
2013-05-14 02:16:00,62.9,49.2,30.70,South,186,1.0,6.0,61,0.00,,,0.00,Weather View 32 v70,2013-05-14 07:16:00,
2013-05-14 02:21:00,62.8,49.6,30.70,South,186,2.0,6.0,62,0.00,,,0.00,Weather View 32 v70,2013-05-14 07:21:00,
2013-05-14 02:26:00,62.6,49.8,30.70,South,186,3.0,6.0,63,0.00,,,0.00,Weather View 32 v70,2013-05-14 07:26:00,
2013-05-14 02:31:00,62.3,49.9,30.69,South,186,3.0,6.0,64,0.00,,,0.00,Weather View 32 v70,2013-05-14 07:31:00,
2013-05-14 02:36:00,62.2,50.3,30.70,SSW,208,3.0,6.0,65,0.00,,,0.00,Weather View 32 v70,2013-05-14 07:36:00,
2013-05-14 02:41:00,62.1,50.2,30.70,SSW,208,2.0,6.0,65,0.00,,,0.00,Weather View 32 v70,2013-05-14 07:41:00,
2013-05-14 02:46:00,62.0,50.5,30.70,SSW,208,2.0,5.0,66,0.00,,,0.00,Weather View 32 v70,2013-05-14 07:46:00,
2013-05-14 02:51:00,62.0,50.5,30.69,SSW,208,3.0,5.0,66,0.00,,,0.00,Weather View 32 v70,2013-05-14 07:51:00,
2013-05-14 02:56:00,61.8,50.7,30.70,SSW,208,4.0,5.0,67,0.00,,,0.00,Weather View 32 v70,2013-05-14 07:56:00,
2013-05-14 03:01:00,61.7,50.6,30.69,SSW,208,5.0,5.0,67,0.00,,,0.00,Weather View 32 v70,2013-05-14 08:01:00,
2013-05-14 03:06:00,61.8,51.1,30.69,SSW,208,6.0,6.0,68,0.00,,,0.00,Weather View 32 v70,2013-05-14 08:06:00,
2013-05-14 03:11:00,61.7,51.0,30.69,SSW,208,3.0,6.0,68,0.00,,,0.00,Weather View 32 v70,2013-05-14 08:11:00,
2013-05-14 03:16:00,61.8,51.1,30.69,South,186,3.0,6.0,68,0.00,,,0.00,Weather View 32 v70,2013-05-14 08:16:00,
2013-05-14 03:21:00,61.9,51.6,30.69,South,186,3.0,6.0,69,0.00,,,0.00,Weather View 32 v70,2013-05-14 08:21:00,
2013-05-14 03:26:00,61.7,51.4,30.69,South,186,3.0,6.0,69,0.00,,,0.00,Weather View 32 v70,2013-05-14 08:26:00,
2013-05-14 03:31:00,61.7,51.8,30.69,South,186,3.0,6.0,70,0.00,,,0.00,Weather View 32 v70,2013-05-14 08:31:00,
2013-05-14 03:36:00,61.7,51.8,30.69,South,186,3.0,6.0,70,0.00,,,0.00,Weather View 32 v70,2013-05-14 08:36:00,
2013-05-14 03:41:00,61.8,52.3,30.69,SSW,208,3.0,6.0,71,0.00,,,0.00,Weather View 32 v70,2013-05-14 08:41:00,
2013-05-14 03:46:00,62.0,52.8,30.69,West,276,3.0,6.0,72,0.00,,,0.00,Weather View 32 v70,2013-05-14 08:46:00,
2013-05-14 03:51:00,62.3,53.1,30.69,SSW,208,5.0,6.0,72,0.00,,,0.00,Weather View 32 v70,2013-05-14 08:51:00,
2013-05-14 03:56:00,62.7,53.5,30.69,SSW,208,5.0,7.0,72,0.00,,,0.00,Weather View 32 v70,2013-05-14 08:56:00,
2013-05-14 04:01:00,63.1,53.9,30.69,South,186,4.0,10.0,72,0.00,,,0.00,Weather View 32 v70,2013-05-14 09:01:00,
2013-05-14 04:06:00,63.0,53.8,30.69,South,186,6.0,10.0,72,0.00,,,0.00,Weather View 32 v70,2013-05-14 09:06:00,
2013-05-14 04:11:00,62.8,53.6,30.69,SSW,208,4.0,10.0,72,0.00,,,0.00,Weather View 32 v70,2013-05-14 09:11:00,
2013-05-14 04:16:00,62.5,53.3,30.69,SSW,208,6.0,10.0,72,0.00,,,0.00,Weather View 32 v70,2013-05-14 09:16:00,
2013-05-14 04:21:00,62.2,53.4,30.69,SSW,208,7.0,10.0,73,0.00,,,0.00,Weather View 32 v70,2013-05-14 09:21:00,
2013-05-14 04:26:00,62.1,53.3,30.69,South,186,4.0,10.0,73,0.00,,,0.00,Weather View 32 v70,2013-05-14 09:26:00,
2013-05-14 04:31:00,62.0,53.6,30.69,SSW,208,5.0,10.0,74,0.00,,,0.00,Weather View 32 v70,2013-05-14 09:31:00,
2013-05-14 04:36:00,62.1,54.1,30.69,SE,141,3.0,10.0,75,0.00,,,0.00,Weather View 32 v70,2013-05-14 09:36:00,
2013-05-14 04:41:00,61.9,53.9,30.69,South,186,4.0,10.0,75,0.00,,,0.00,Weather View 32 v70,2013-05-14 09:41:00,
2013-05-14 04:46:00,61.8,53.8,30.69,South,186,6.0,10.0,75,0.00,,,0.00,Weather View 32 v70,2013-05-14 09:46:00,
2013-05-14 04:51:00,61.4,53.7,30.69,South,186,5.0,10.0,76,0.00,,,0.00,Weather View 32 v70,2013-05-14 09:51:00,
2013-05-14 04:56:00,61.2,53.9,30.69,South,186,6.0,10.0,77,0.00,,,0.00,Weather View 32 v70,2013-05-14 09:56:00,
2013-05-14 05:01:00,61.1,54.2,30.69,South,186,5.0,10.0,78,0.00,,,0.00,Weather View 32 v70,2013-05-14 10:01:00,
2013-05-14 05:06:00,61.0,54.4,30.69,South,186,5.0,10.0,79,0.00,,,0.00,Weather View 32 v70,2013-05-14 10:06:00,
2013-05-14 05:11:00,61.0,54.8,30.69,SSW,208,5.0,10.0,80,0.00,,,0.00,Weather View 32 v70,2013-05-14 10:11:00,
2013-05-14 05:16:00,61.0,54.8,30.69,South,186,5.0,10.0,80,0.00,,,0.00,Weather View 32 v70,2013-05-14 10:16:00,
2013-05-14 05:21:00,61.1,55.2,30.69,SSW,208,5.0,10.0,81,0.00,,,0.00,Weather View 32 v70,2013-05-14 10:21:00,
2013-05-14 05:26:00,61.2,55.6,30.69,South,186,4.0,9.0,82,0.00,,,0.00,Weather View 32 v70,2013-05-14 10:26:00,
2013-05-14 05:31:00,61.2,55.6,30.70,South,186,4.0,10.0,82,0.00,,,0.00,Weather View 32 v70,2013-05-14 10:31:00,
2013-05-14 05:37:00,61.0,55.5,30.70,South,186,7.0,10.0,82,0.00,,,0.00,Weather View 32 v70,2013-05-14 10:37:00,
2013-05-14 05:42:00,60.7,55.5,30.69,SSE,163,5.0,10.0,83,0.00,,,0.00,Weather View 32 v70,2013-05-14 10:42:00,
2013-05-14 05:47:00,60.3,55.1,30.69,South,186,5.0,10.0,83,0.00,,,0.00,Weather View 32 v70,2013-05-14 10:47:00,
2013-05-14 05:52:00,59.8,54.9,30.70,South,186,3.0,10.0,84,0.00,,,0.00,Weather View 32 v70,2013-05-14 10:52:00,
2013-05-14 05:57:00,59.8,55.3,30.69,South,186,3.0,10.0,85,0.00,,,0.00,Weather View 32 v70,2013-05-14 10:57:00,
2013-05-14 06:02:00,59.7,55.5,30.70,SSE,163,5.0,10.0,86,0.00,,,0.00,Weather View 32 v70,2013-05-14 11:02:00,
2013-05-14 06:07:00,59.6,55.4,30.70,South,186,4.0,10.0,86,0.00,,,0.00,Weather View 32 v70,2013-05-14 11:07:00,
2013-05-14 06:12:00,59.5,55.6,30.70,SSE,163,4.0,10.0,87,0.00,,,0.00,Weather View 32 v70,2013-05-14 11:12:00,
2013-05-14 06:17:00,59.5,55.6,30.70,SSE,163,5.0,10.0,87,0.00,,,0.00,Weather View 32 v70,2013-05-14 11:17:00,
2013-05-14 06:22:00,59.5,55.9,30.70,South,186,3.0,10.0,88,0.00,,,0.00,Weather View 32 v70,2013-05-14 11:22:00,
2013-05-14 06:27:00,59.5,55.9,30.70,SSE,163,5.0,10.0,88,0.00,,,0.00,Weather View 32 v70,2013-05-14 11:27:00,
2013-05-14 06:32:00,59.4,56.1,30.70,SSE,163,3.0,10.0,89,0.00,,,0.00,Weather View 32 v70,2013-05-14 11:32:00,
2013-05-14 06:37:00,59.5,56.2,30.70,SSE,163,6.0,8.0,89,0.00,,,0.00,Weather View 32 v70,2013-05-14 11:37:00,
2013-05-14 06:42:00,59.5,56.6,30.70,SSE,163,7.0,8.0,90,0.00,,,0.00,Weather View 32 v70,2013-05-14 11:42:00,
2013-05-14 06:47:00,59.5,56.6,30.70,SSW,208,5.0,8.0,90,0.00,,,0.00,Weather View 32 v70,2013-05-14 11:47:00,
2013-05-14 06:52:00,59.7,57.1,30.70,South,186,6.0,8.0,91,0.00,,,0.00,Weather View 32 v70,2013-05-14 11:52:00,
2013-05-14 06:57:00,59.8,57.2,30.71,South,186,6.0,8.0,91,0.00,,,0.00,Weather View 32 v70,2013-05-14 11:57:00,
2013-05-14 07:02:00,60.0,57.4,30.71,SSE,163,4.0,8.0,91,0.00,,,0.00,Weather View 32 v70,2013-05-14 12:02:00,
2013-05-14 07:07:00,60.2,57.2,30.71,SSW,208,6.0,8.0,90,0.00,,,0.00,Weather View 32 v70,2013-05-14 12:07:00,
2013-05-14 07:12:00,60.3,57.3,30.71,South,186,5.0,8.0,90,0.00,,,0.00,Weather View 32 v70,2013-05-14 12:12:00,
2013-05-14 07:17:00,60.6,57.6,30.71,SSW,208,8.0,8.0,90,0.00,,,0.00,Weather View 32 v70,2013-05-14 12:17:00,
2013-05-14 07:22:00,60.9,57.9,30.71,SSW,208,5.0,8.0,90,0.00,,,0.00,Weather View 32 v70,2013-05-14 12:22:00,
2013-05-14 07:27:00,61.1,58.1,30.72,SSE,163,6.0,8.0,90,0.00,,,0.00,Weather View 32 v70,2013-05-14 12:27:00,
2013-05-14 07:32:00,61.2,57.9,30.72,South,186,5.0,8.0,89,0.00,,,0.00,Weather View 32 v70,2013-05-14 12:32:00,
2013-05-14 07:37:00,61.3,58.0,30.72,South,186,5.0,8.0,89,0.00,,,0.00,Weather View 32 v70,2013-05-14 12:37:00,
2013-05-14 07:42:00,61.7,58.4,30.72,South,186,6.0,9.0,89,0.00,,,0.00,Weather View 32 v70,2013-05-14 12:42:00,
2013-05-14 07:47:00,62.2,58.9,30.72,South,186,5.0,10.0,89,0.00,,,0.00,Weather View 32 v70,2013-05-14 12:47:00,
2013-05-14 07:52:00,62.6,59.0,30.72,SSE,163,6.0,10.0,88,0.00,,,0.00,Weather View 32 v70,2013-05-14 12:52:00,
2013-05-14 07:57:00,62.9,59.0,30.72,SSW,208,8.0,11.0,87,0.00,,,0.00,Weather View 32 v70,2013-05-14 12:57:00,
2013-05-14 08:02:00,63.4,59.1,30.72,SSW,208,8.0,11.0,86,0.00,,,0.00,Weather View 32 v70,2013-05-14 13:02:00,
2013-05-14 08:07:00,63.8,59.5,30.72,South,186,6.0,11.0,86,0.00,,,0.00,Weather View 32 v70,2013-05-14 13:07:00,
2013-05-14 08:12:00,64.0,59.4,30.72,South,186,8.0,11.0,85,0.00,,,0.00,Weather View 32 v70,2013-05-14 13:12:00,
2013-05-14 08:17:00,64.5,59.5,30.72,SSE,163,5.0,13.0,84,0.00,,,0.00,Weather View 32 v70,2013-05-14 13:17:00,
2013-05-14 08:22:00,64.9,59.6,30.72,SSW,208,9.0,13.0,83,0.00,,,0.00,Weather View 32 v70,2013-05-14 13:22:00,
2013-05-14 08:27:00,65.2,59.5,30.72,South,186,8.0,13.0,82,0.00,,,0.00,Weather View 32 v70,2013-05-14 13:27:00,
2013-05-14 08:32:00,65.5,59.5,30.72,SSW,208,8.0,13.0,81,0.00,,,0.00,Weather View 32 v70,2013-05-14 13:32:00,
2013-05-14 08:37:00,66.0,59.6,30.73,South,186,11.0,14.0,80,0.00,,,0.00,Weather View 32 v70,2013-05-14 13:37:00,
2013-05-14 08:42:00,66.4,59.7,30.73,South,186,5.0,14.0,79,0.00,,,0.00,Weather View 32 v70,2013-05-14 13:42:00,
2013-05-14 08:47:00,66.5,59.8,30.73,SSW,208,8.0,14.0,79,0.00,,,0.00,Weather View 32 v70,2013-05-14 13:47:00,
2013-05-14 08:52:00,66.6,59.5,30.73,South,186,11.0,14.0,78,0.00,,,0.00,Weather View 32 v70,2013-05-14 13:52:00,
2013-05-14 08:57:00,66.8,59.7,30.73,SSW,208,8.0,14.0,78,0.00,,,0.00,Weather View 32 v70,2013-05-14 13:57:00,
2013-05-14 09:02:00,67.2,59.7,30.73,SSW,208,8.0,14.0,77,0.00,,,0.00,Weather View 32 v70,2013-05-14 14:02:00,
2013-05-14 09:07:00,67.5,59.6,30.74,SSW,208,10.0,14.0,76,0.00,,,0.00,Weather View 32 v70,2013-05-14 14:07:00,
2013-05-14 09:12:00,68.0,60.1,30.73,SW,231,8.0,14.0,76,0.00,,,0.00,Weather View 32 v70,2013-05-14 14:12:00,
2013-05-14 09:17:00,68.2,59.9,30.74,SSW,208,8.0,14.0,75,0.00,,,0.00,Weather View 32 v70,2013-05-14 14:17:00,
2013-05-14 09:22:00,68.4,59.8,30.74,SW,231,10.0,14.0,74,0.00,,,0.00,Weather View 32 v70,2013-05-14 14:22:00,
2013-05-14 09:27:00,68.9,59.9,30.74,SW,231,8.0,14.0,73,0.00,,,0.00,Weather View 32 v70,2013-05-14 14:27:00,
2013-05-14 09:32:00,69.4,60.3,30.73,SSW,208,8.0,14.0,73,0.00,,,0.00,Weather View 32 v70,2013-05-14 14:32:00,
2013-05-14 09:37:00,69.9,60.0,30.74,SSW,208,7.0,14.0,71,0.00,,,0.00,Weather View 32 v70,2013-05-14 14:37:00,
2013-05-14 09:42:00,70.1,59.8,30.74,SSW,208,6.0,14.0,70,0.00,,,0.00,Weather View 32 v70,2013-05-14 14:42:00,
2013-05-14 09:47:00,70.6,59.9,30.74,South,186,10.0,14.0,69,0.00,,,0.00,Weather View 32 v70,2013-05-14 14:47:00,
2013-05-14 09:52:00,70.8,59.7,30.74,SSW,208,8.0,14.0,68,0.00,,,0.00,Weather View 32 v70,2013-05-14 14:52:00,
2013-05-14 09:57:00,71.6,60.4,30.74,WSW,253,7.0,14.0,68,0.00,,,0.00,Weather View 32 v70,2013-05-14 14:57:00,
2013-05-14 10:02:00,72.0,60.4,30.74,SSW,208,11.0,15.0,67,0.00,,,0.00,Weather View 32 v70,2013-05-14 15:02:00,
2013-05-14 10:07:00,72.2,59.7,30.74,WSW,253,10.0,15.0,65,0.00,,,0.00,Weather View 32 v70,2013-05-14 15:07:00,
2013-05-14 10:12:00,73.0,60.5,30.74,SSW,208,5.0,15.0,65,0.00,,,0.00,Weather View 32 v70,2013-05-14 15:12:00,
2013-05-14 10:17:00,73.5,60.5,30.74,WSW,253,7.0,15.0,64,0.00,,,0.00,Weather View 32 v70,2013-05-14 15:17:00,
2013-05-14 10:22:00,73.4,59.5,30.74,SSW,208,9.0,22.0,62,0.00,,,0.00,Weather View 32 v70,2013-05-14 15:22:00,
2013-05-14 10:27:00,73.5,59.6,30.74,SSW,208,13.0,22.0,62,0.00,,,0.00,Weather View 32 v70,2013-05-14 15:27:00,
2013-05-14 10:32:00,73.7,59.8,30.74,South,186,8.0,22.0,62,0.00,,,0.00,Weather View 32 v70,2013-05-14 15:32:00,
2013-05-14 10:37:00,73.9,60.0,30.74,SW,231,10.0,22.0,62,0.00,,,0.00,Weather View 32 v70,2013-05-14 15:37:00,
2013-05-14 10:42:00,74.1,59.7,30.74,South,186,8.0,22.0,61,0.00,,,0.00,Weather View 32 v70,2013-05-14 15:42:00,
2013-05-14 10:47:00,74.6,60.2,30.74,SSW,208,7.0,22.0,61,0.00,,,0.00,Weather View 32 v70,2013-05-14 15:47:00,
2013-05-14 10:52:00,74.7,60.3,30.74,SSW,208,10.0,22.0,61,0.00,,,0.00,Weather View 32 v70,2013-05-14 15:52:00,
2013-05-14 10:57:00,75.3,60.4,30.74,SSE,163,10.0,22.0,60,0.00,,,0.00,Weather View 32 v70,2013-05-14 15:57:00,
2013-05-14 11:02:00,75.9,61.0,30.74,SSW,208,12.0,22.0,60,0.00,,,0.00,Weather View 32 v70,2013-05-14 16:02:00,
2013-05-14 11:07:00,75.3,59.9,30.75,SW,231,10.0,22.0,59,0.00,,,0.00,Weather View 32 v70,2013-05-14 16:07:00,
2013-05-14 11:12:00,75.9,60.5,30.74,SSW,208,13.0,22.0,59,0.00,,,0.00,Weather View 32 v70,2013-05-14 16:12:00,
2013-05-14 11:17:00,76.0,60.1,30.74,SSW,208,10.0,22.0,58,0.00,,,0.00,Weather View 32 v70,2013-05-14 16:17:00,
2013-05-14 11:22:00,76.4,60.5,30.74,SSW,208,13.0,17.0,58,0.00,,,0.00,Weather View 32 v70,2013-05-14 16:22:00,
2013-05-14 11:27:00,76.9,60.9,30.74,SSW,208,5.0,17.0,58,0.00,,,0.00,Weather View 32 v70,2013-05-14 16:27:00,
2013-05-14 11:32:00,77.1,61.1,30.74,SSW,208,7.0,17.0,58,0.00,,,0.00,Weather View 32 v70,2013-05-14 16:32:00,
2013-05-14 11:37:00,77.8,60.8,30.74,SSW,208,11.0,17.0,56,0.00,,,0.00,Weather View 32 v70,2013-05-14 16:37:00,
2013-05-14 11:42:00,78.3,61.8,30.74,SW,231,5.0,17.0,57,0.00,,,0.00,Weather View 32 v70,2013-05-14 16:42:00,
2013-05-14 11:47:00,77.1,59.1,30.74,SSW,208,8.0,17.0,54,0.00,,,0.00,Weather View 32 v70,2013-05-14 16:47:00,
2013-05-14 11:52:00,77.7,60.7,30.73,WSW,253,6.0,17.0,56,0.00,,,0.00,Weather View 32 v70,2013-05-14 16:52:00,
2013-05-14 11:57:00,78.1,61.1,30.73,South,186,6.0,17.0,56,0.00,,,0.00,Weather View 32 v70,2013-05-14 16:57:00,
2013-05-14 12:02:00,77.7,59.7,30.73,SSW,208,7.0,17.0,54,0.00,,,0.00,Weather View 32 v70,2013-05-14 17:02:00,
2013-05-14 12:07:00,78.1,59.0,30.72,SW,231,9.0,17.0,52,0.00,,,0.00,Weather View 32 v70,2013-05-14 17:07:00,
2013-05-14 12:12:00,78.5,60.4,30.72,South,186,8.0,17.0,54,0.00,,,0.00,Weather View 32 v70,2013-05-14 17:12:00,
2013-05-14 12:17:00,78.8,60.2,30.72,South,186,9.0,16.0,53,0.00,,,0.00,Weather View 32 v70,2013-05-14 17:17:00,
2013-05-14 12:22:00,78.7,60.1,30.72,South,186,7.0,17.0,53,0.00,,,0.00,Weather View 32 v70,2013-05-14 17:22:00,
2013-05-14 12:27:00,78.8,59.6,30.72,SSW,208,7.0,17.0,52,0.00,,,0.00,Weather View 32 v70,2013-05-14 17:27:00,
2013-05-14 12:32:00,79.8,59.4,30.71,South,186,7.0,17.0,50,0.00,,,0.00,Weather View 32 v70,2013-05-14 17:32:00,
2013-05-14 12:37:00,80.5,60.6,30.71,SW,231,10.0,18.0,51,0.00,,,0.00,Weather View 32 v70,2013-05-14 17:37:00,
2013-05-14 12:42:00,80.0,59.6,30.71,South,186,11.0,18.0,50,0.00,,,0.00,Weather View 32 v70,2013-05-14 17:42:00,
2013-05-14 12:47:00,80.4,59.4,30.71,SW,231,10.0,18.0,49,0.00,,,0.00,Weather View 32 v70,2013-05-14 17:47:00,
2013-05-14 12:52:00,80.7,59.7,30.71,South,186,9.0,18.0,49,0.00,,,0.00,Weather View 32 v70,2013-05-14 17:52:00,
2013-05-14 12:57:00,80.2,57.5,30.70,South,186,11.0,18.0,46,0.00,,,0.00,Weather View 32 v70,2013-05-14 17:57:00,
2013-05-14 13:02:00,80.1,58.6,30.70,SSW,208,11.0,18.0,48,0.00,,,0.00,Weather View 32 v70,2013-05-14 18:02:00,
2013-05-14 13:07:00,80.5,57.7,30.69,South,186,8.0,18.0,46,0.00,,,0.00,Weather View 32 v70,2013-05-14 18:07:00,
2013-05-14 13:12:00,81.0,58.8,30.69,South,186,7.0,18.0,47,0.00,,,0.00,Weather View 32 v70,2013-05-14 18:12:00,
2013-05-14 13:17:00,80.6,57.2,30.69,SSE,163,10.0,18.0,45,0.00,,,0.00,Weather View 32 v70,2013-05-14 18:17:00,
2013-05-14 13:22:00,80.8,57.4,30.69,SSW,208,13.0,18.0,45,0.00,,,0.00,Weather View 32 v70,2013-05-14 18:22:00,
2013-05-14 13:27:00,80.7,57.3,30.69,South,186,12.0,18.0,45,0.00,,,0.00,Weather View 32 v70,2013-05-14 18:27:00,
2013-05-14 13:32:00,81.2,57.1,30.68,South,186,8.0,18.0,44,0.00,,,0.00,Weather View 32 v70,2013-05-14 18:32:00,
2013-05-14 13:37:00,81.7,59.4,30.68,SSW,208,13.0,18.0,47,0.00,,,0.00,Weather View 32 v70,2013-05-14 18:37:00,
2013-05-14 13:42:00,82.1,57.9,30.68,SSW,208,9.0,18.0,44,0.00,,,0.00,Weather View 32 v70,2013-05-14 18:42:00,
2013-05-14 13:47:00,82.1,58.6,30.68,SSW,208,5.0,18.0,45,0.00,,,0.00,Weather View 32 v70,2013-05-14 18:47:00,
2013-05-14 13:52:00,82.3,58.1,30.67,South,186,6.0,18.0,44,0.00,,,0.00,Weather View 32 v70,2013-05-14 18:52:00,
2013-05-14 13:57:00,82.3,58.1,30.67,SSE,163,10.0,18.0,44,0.00,,,0.00,Weather View 32 v70,2013-05-14 18:57:00,
2013-05-14 14:02:00,81.8,56.4,30.67,SSW,208,10.0,18.0,42,0.00,,,0.00,Weather View 32 v70,2013-05-14 19:02:00,
2013-05-14 14:07:00,82.3,57.5,30.67,SSE,163,11.0,18.0,43,0.00,,,0.00,Weather View 32 v70,2013-05-14 19:07:00,
2013-05-14 14:12:00,82.9,56.7,30.66,South,186,8.0,18.0,41,0.00,,,0.00,Weather View 32 v70,2013-05-14 19:12:00,
2013-05-14 14:17:00,82.4,55.6,30.66,South,186,10.0,18.0,40,0.00,,,0.00,Weather View 32 v70,2013-05-14 19:17:00,
2013-05-14 14:22:00,82.7,55.8,30.66,SSE,163,11.0,18.0,40,0.00,,,0.00,Weather View 32 v70,2013-05-14 19:22:00,
2013-05-14 14:27:00,82.4,54.9,30.66,SSW,208,11.0,20.0,39,0.00,,,0.00,Weather View 32 v70,2013-05-14 19:27:00,
2013-05-14 14:32:00,82.3,56.2,30.66,SSE,163,13.0,20.0,41,0.00,,,0.00,Weather View 32 v70,2013-05-14 19:32:00,
2013-05-14 14:37:00,83.7,57.4,30.65,SE,141,8.0,20.0,41,0.00,,,0.00,Weather View 32 v70,2013-05-14 19:37:00,
2013-05-14 14:42:00,83.4,57.8,30.65,South,186,5.0,20.0,42,0.00,,,0.00,Weather View 32 v70,2013-05-14 19:42:00,
2013-05-14 14:47:00,83.2,54.9,30.65,SW,231,11.0,20.0,38,0.00,,,0.00,Weather View 32 v70,2013-05-14 19:47:00,
2013-05-14 14:52:00,83.2,56.3,30.65,SE,141,8.0,20.0,40,0.00,,,0.00,Weather View 32 v70,2013-05-14 19:52:00,
2013-05-14 14:57:00,82.7,55.1,30.65,SSE,163,11.0,20.0,39,0.00,,,0.00,Weather View 32 v70,2013-05-14 19:57:00,
2013-05-14 15:02:00,83.2,55.6,30.65,South,186,12.0,20.0,39,0.00,,,0.00,Weather View 32 v70,2013-05-14 20:02:00,
2013-05-14 15:07:00,83.2,53.4,30.65,SSW,208,14.0,20.0,36,0.00,,,0.00,Weather View 32 v70,2013-05-14 20:07:00,
2013-05-14 15:12:00,83.4,54.3,30.64,SSW,208,13.0,20.0,37,0.00,,,0.00,Weather View 32 v70,2013-05-14 20:12:00,
2013-05-14 15:17:00,82.7,53.7,30.64,South,186,14.0,20.0,37,0.00,,,0.00,Weather View 32 v70,2013-05-14 20:17:00,
2013-05-14 15:22:00,83.4,52.8,30.64,South,186,11.0,23.0,35,0.00,,,0.00,Weather View 32 v70,2013-05-14 20:22:00,
2013-05-14 15:27:00,83.6,52.2,30.64,South,186,11.0,23.0,34,0.00,,,0.00,Weather View 32 v70,2013-05-14 20:27:00,
2013-05-14 15:32:00,83.5,50.4,30.64,SSW,208,13.0,23.0,32,0.00,,,0.00,Weather View 32 v70,2013-05-14 20:32:00,
2013-05-14 15:37:00,83.6,50.5,30.64,South,186,14.0,23.0,32,0.00,,,0.00,Weather View 32 v70,2013-05-14 20:37:00,
2013-05-14 15:42:00,83.1,50.9,30.64,SSW,208,13.0,23.0,33,0.00,,,0.00,Weather View 32 v70,2013-05-14 20:42:00,
2013-05-14 15:47:00,83.8,50.7,30.63,SW,231,12.0,23.0,32,0.00,,,0.00,Weather View 32 v70,2013-05-14 20:47:00,
2013-05-14 15:52:00,83.4,49.5,30.63,South,186,11.0,23.0,31,0.00,,,0.00,Weather View 32 v70,2013-05-14 20:52:00,
2013-05-14 15:57:00,84.2,51.0,30.63,South,186,19.0,23.0,32,0.00,,,0.00,Weather View 32 v70,2013-05-14 20:57:00,
2013-05-14 16:02:00,83.8,50.7,30.63,South,186,8.0,23.0,32,0.00,,,0.00,Weather View 32 v70,2013-05-14 21:02:00,
2013-05-14 16:07:00,84.0,50.9,30.63,SSE,163,7.0,23.0,32,0.00,,,0.00,Weather View 32 v70,2013-05-14 21:07:00,
2013-05-14 16:12:00,83.8,50.7,30.62,SSW,208,11.0,23.0,32,0.00,,,0.00,Weather View 32 v70,2013-05-14 21:12:00,
2013-05-14 16:17:00,83.8,51.5,30.62,SSW,208,10.0,23.0,33,0.00,,,0.00,Weather View 32 v70,2013-05-14 21:17:00,
2013-05-14 16:22:00,83.7,50.6,30.62,SSW,208,5.0,23.0,32,0.00,,,0.00,Weather View 32 v70,2013-05-14 21:22:00,
2013-05-14 16:27:00,83.9,51.6,30.62,SSW,208,13.0,23.0,33,0.00,,,0.00,Weather View 32 v70,2013-05-14 21:27:00,
2013-05-14 16:32:00,83.9,51.6,30.62,SSW,208,8.0,23.0,33,0.00,,,0.00,Weather View 32 v70,2013-05-14 21:32:00,
2013-05-14 16:37:00,83.9,51.6,30.61,SSW,208,10.0,23.0,33,0.00,,,0.00,Weather View 32 v70,2013-05-14 21:37:00,
2013-05-14 16:42:00,84.1,51.8,30.61,South,186,13.0,23.0,33,0.00,,,0.00,Weather View 32 v70,2013-05-14 21:42:00,
2013-05-14 16:47:00,84.2,50.2,30.61,SSW,208,7.0,23.0,31,0.00,,,0.00,Weather View 32 v70,2013-05-14 21:47:00,
2013-05-14 16:52:00,83.8,49.8,30.61,South,186,13.0,23.0,31,0.00,,,0.00,Weather View 32 v70,2013-05-14 21:52:00,
2013-05-14 16:57:00,83.8,49.0,30.61,SSW,208,8.0,23.0,30,0.00,,,0.00,Weather View 32 v70,2013-05-14 21:57:00,
2013-05-14 17:02:00,83.9,50.8,30.61,South,186,8.0,23.0,32,0.00,,,0.00,Weather View 32 v70,2013-05-14 22:02:00,
2013-05-14 17:07:00,84.0,51.7,30.60,SSW,208,11.0,23.0,33,0.00,,,0.00,Weather View 32 v70,2013-05-14 22:07:00,
2013-05-14 17:12:00,83.8,50.7,30.61,SSW,208,13.0,23.0,32,0.00,,,0.00,Weather View 32 v70,2013-05-14 22:12:00,
2013-05-14 17:17:00,83.7,50.6,30.60,SSW,208,19.0,22.0,32,0.00,,,0.00,Weather View 32 v70,2013-05-14 22:17:00,
2013-05-14 17:22:00,83.2,50.2,30.59,South,186,11.0,22.0,32,0.00,,,0.00,Weather View 32 v70,2013-05-14 22:22:00,
2013-05-14 17:27:00,83.5,50.4,30.59,SSW,208,11.0,22.0,32,0.00,,,0.00,Weather View 32 v70,2013-05-14 22:27:00,
2013-05-14 17:32:00,83.9,50.8,30.59,South,186,8.0,22.0,32,0.00,,,0.00,Weather View 32 v70,2013-05-14 22:32:00,
2013-05-14 17:37:00,83.4,50.4,30.60,SSW,208,9.0,22.0,32,0.00,,,0.00,Weather View 32 v70,2013-05-14 22:37:00,
2013-05-14 17:42:00,83.0,50.0,30.59,SSW,208,13.0,22.0,32,0.00,,,0.00,Weather View 32 v70,2013-05-14 22:42:00,
2013-05-14 17:47:00,83.3,51.9,30.59,SSE,163,12.0,22.0,34,0.00,,,0.00,Weather View 32 v70,2013-05-14 22:47:00,
2013-05-14 17:52:00,83.4,52.8,30.59,SSE,163,10.0,22.0,35,0.00,,,0.00,Weather View 32 v70,2013-05-14 22:52:00,
2013-05-14 17:57:00,83.0,52.4,30.59,South,186,12.0,21.0,35,0.00,,,0.00,Weather View 32 v70,2013-05-14 22:57:00,
2013-05-14 18:02:00,82.9,52.3,30.59,South,186,10.0,21.0,35,0.00,,,0.00,Weather View 32 v70,2013-05-14 23:02:00,
2013-05-14 18:07:00,83.0,52.4,30.59,SSW,208,8.0,21.0,35,0.00,,,0.00,Weather View 32 v70,2013-05-14 23:07:00,
2013-05-14 18:12:00,82.8,53.0,30.58,SSW,208,11.0,21.0,36,0.00,,,0.00,Weather View 32 v70,2013-05-14 23:12:00,
2013-05-14 18:17:00,82.6,53.6,30.58,South,186,5.0,19.0,37,0.00,,,0.00,Weather View 32 v70,2013-05-14 23:17:00,
2013-05-14 18:22:00,82.5,53.5,30.58,South,186,15.0,19.0,37,0.00,,,0.00,Weather View 32 v70,2013-05-14 23:22:00,
2013-05-14 18:27:00,82.4,54.2,30.58,South,186,10.0,19.0,38,0.00,,,0.00,Weather View 32 v70,2013-05-14 23:27:00,
2013-05-14 18:32:00,82.3,54.1,30.58,SSW,208,7.0,19.0,38,0.00,,,0.00,Weather View 32 v70,2013-05-14 23:32:00,
2013-05-14 18:37:00,82.1,53.9,30.58,SSW,208,13.0,19.0,38,0.00,,,0.00,Weather View 32 v70,2013-05-14 23:37:00,
2013-05-14 18:42:00,82.0,54.5,30.58,South,186,8.0,19.0,39,0.00,,,0.00,Weather View 32 v70,2013-05-14 23:42:00,
2013-05-14 18:47:00,81.7,53.5,30.57,South,186,14.0,21.0,38,0.00,,,0.00,Weather View 32 v70,2013-05-14 23:47:00,
2013-05-14 18:52:00,81.7,54.2,30.57,SE,141,9.0,21.0,39,0.00,,,0.00,Weather View 32 v70,2013-05-14 23:52:00,
2013-05-14 18:57:00,81.4,54.7,30.57,SE,141,10.0,21.0,40,0.00,,,0.00,Weather View 32 v70,2013-05-14 23:57:00,
2013-05-14 19:02:00,81.4,54.0,30.57,SSE,163,6.0,21.0,39,0.00,,,0.00,Weather View 32 v70,2013-05-15 00:02:00,
2013-05-14 19:07:00,81.2,53.8,30.57,SSE,163,14.0,21.0,39,0.00,,,0.00,Weather View 32 v70,2013-05-15 00:07:00,
2013-05-14 19:12:00,81.2,53.1,30.56,South,186,8.0,21.0,38,0.00,,,0.00,Weather View 32 v70,2013-05-15 00:12:00,
2013-05-14 19:17:00,80.9,53.5,30.57,SSE,163,10.0,21.0,39,0.00,,,0.00,Weather View 32 v70,2013-05-15 00:17:00,
2013-05-14 19:22:00,80.8,52.7,30.57,SE,141,11.0,21.0,38,0.00,,,0.00,Weather View 32 v70,2013-05-15 00:22:00,
2013-05-14 19:27:00,80.5,53.2,30.56,South,186,8.0,21.0,39,0.00,,,0.00,Weather View 32 v70,2013-05-15 00:27:00,
2013-05-14 19:32:00,80.1,53.5,30.57,SSE,163,6.0,21.0,40,0.00,,,0.00,Weather View 32 v70,2013-05-15 00:32:00,
2013-05-14 19:37:00,79.8,53.9,30.56,SE,141,9.0,21.0,41,0.00,,,0.00,Weather View 32 v70,2013-05-15 00:37:00,
2013-05-14 19:42:00,79.5,53.7,30.57,SE,141,6.0,21.0,41,0.00,,,0.00,Weather View 32 v70,2013-05-15 00:42:00,
2013-05-14 19:47:00,79.2,53.4,30.56,South,186,4.0,21.0,41,0.00,,,0.00,Weather View 32 v70,2013-05-15 00:47:00,
2013-05-14 19:52:00,78.9,53.1,30.57,SE,141,6.0,18.0,41,0.00,,,0.00,Weather View 32 v70,2013-05-15 00:52:00,
2013-05-14 19:57:00,78.7,52.9,30.57,South,186,4.0,18.0,41,0.00,,,0.00,Weather View 32 v70,2013-05-15 00:57:00,
2013-05-14 20:02:00,78.3,52.6,30.56,SE,141,8.0,18.0,41,0.00,,,0.00,Weather View 32 v70,2013-05-15 01:02:00,
2013-05-14 20:07:00,77.9,52.9,30.57,SE,141,3.0,18.0,42,0.00,,,0.00,Weather View 32 v70,2013-05-15 01:07:00,
2013-05-14 20:12:00,77.4,53.1,30.57,SE,141,6.0,18.0,43,0.00,,,0.00,Weather View 32 v70,2013-05-15 01:12:00,
2013-05-14 20:17:00,76.9,52.6,30.57,SE,141,5.0,18.0,43,0.00,,,0.00,Weather View 32 v70,2013-05-15 01:17:00,
2013-05-14 20:22:00,76.6,53.0,30.57,SE,141,3.0,18.0,44,0.00,,,0.00,Weather View 32 v70,2013-05-15 01:22:00,
2013-05-14 20:27:00,76.5,53.5,30.58,SSE,163,4.0,16.0,45,0.00,,,0.00,Weather View 32 v70,2013-05-15 01:27:00,
2013-05-14 20:32:00,76.1,53.8,30.58,SE,141,7.0,12.0,46,0.00,,,0.00,Weather View 32 v70,2013-05-15 01:32:00,
2013-05-14 20:37:00,75.5,53.8,30.58,SE,141,5.0,11.0,47,0.00,,,0.00,Weather View 32 v70,2013-05-15 01:37:00,
2013-05-14 20:42:00,75.2,54.1,30.58,South,186,5.0,11.0,48,0.00,,,0.00,Weather View 32 v70,2013-05-15 01:42:00,
2013-05-14 20:47:00,75.0,54.5,30.58,SSE,163,5.0,10.0,49,0.00,,,0.00,Weather View 32 v70,2013-05-15 01:47:00,
2013-05-14 20:52:00,74.9,54.9,30.57,SSE,163,6.0,10.0,50,0.00,,,0.00,Weather View 32 v70,2013-05-15 01:52:00,
2013-05-14 20:57:00,74.8,54.9,30.58,SE,141,3.0,9.0,50,0.00,,,0.00,Weather View 32 v70,2013-05-15 01:57:00,
2013-05-14 21:02:00,74.8,55.4,30.58,SSE,163,5.0,9.0,51,0.00,,,0.00,Weather View 32 v70,2013-05-15 02:02:00,
2013-05-14 21:07:00,74.5,55.1,30.58,SSE,163,3.0,9.0,51,0.00,,,0.00,Weather View 32 v70,2013-05-15 02:07:00,
2013-05-14 21:12:00,74.2,55.4,30.58,ESE,118,5.0,9.0,52,0.00,,,0.00,Weather View 32 v70,2013-05-15 02:12:00,
2013-05-14 21:17:00,74.0,55.2,30.58,South,186,3.0,9.0,52,0.00,,,0.00,Weather View 32 v70,2013-05-15 02:17:00,
2013-05-14 21:22:00,73.8,55.5,30.59,SE,141,2.0,9.0,53,0.00,,,0.00,Weather View 32 v70,2013-05-15 02:22:00,
2013-05-14 21:27:00,73.4,55.7,30.59,SE,141,3.0,9.0,54,0.00,,,0.00,Weather View 32 v70,2013-05-15 02:27:00,
2013-05-14 21:32:00,73.3,55.6,30.59,SSE,163,5.0,9.0,54,0.00,,,0.00,Weather View 32 v70,2013-05-15 02:32:00,
2013-05-14 21:37:00,73.1,55.9,30.58,SSE,163,5.0,8.0,55,0.00,,,0.00,Weather View 32 v70,2013-05-15 02:37:00,
2013-05-14 21:42:00,72.9,55.7,30.59,SE,141,3.0,8.0,55,0.00,,,0.00,Weather View 32 v70,2013-05-15 02:42:00,
2013-05-14 21:47:00,72.4,55.8,30.59,ESE,118,3.0,8.0,56,0.00,,,0.00,Weather View 32 v70,2013-05-15 02:47:00,
2013-05-14 21:52:00,72.2,56.1,30.59,SE,141,2.0,8.0,57,0.00,,,0.00,Weather View 32 v70,2013-05-15 02:52:00,
2013-05-14 21:57:00,72.0,55.9,30.59,ESE,118,3.0,8.0,57,0.00,,,0.00,Weather View 32 v70,2013-05-15 02:57:00,
2013-05-14 22:02:00,72.0,56.4,30.59,SE,141,3.0,8.0,58,0.00,,,0.00,Weather View 32 v70,2013-05-15 03:02:00,
2013-05-14 22:07:00,72.0,56.4,30.59,East,96,4.0,7.0,58,0.00,,,0.00,Weather View 32 v70,2013-05-15 03:07:00,
2013-05-14 22:12:00,72.1,56.5,30.60,SE,141,3.0,7.0,58,0.00,,,0.00,Weather View 32 v70,2013-05-15 03:12:00,
2013-05-14 22:17:00,72.0,56.4,30.60,SE,141,3.0,6.0,58,0.00,,,0.00,Weather View 32 v70,2013-05-15 03:17:00,
2013-05-14 22:22:00,71.8,56.7,30.60,SE,141,5.0,6.0,59,0.00,,,0.00,Weather View 32 v70,2013-05-15 03:22:00,
2013-05-14 22:27:00,71.7,57.5,30.60,SE,141,5.0,8.0,61,0.00,,,0.00,Weather View 32 v70,2013-05-15 03:27:00,
2013-05-14 22:32:00,71.8,57.6,30.60,SE,141,8.0,9.0,61,0.00,,,0.00,Weather View 32 v70,2013-05-15 03:32:00,
2013-05-14 22:37:00,71.8,57.6,30.60,SE,141,4.0,9.0,61,0.00,,,0.00,Weather View 32 v70,2013-05-15 03:37:00,
2013-05-14 22:42:00,71.9,58.1,30.60,SSE,163,6.0,11.0,62,0.00,,,0.00,Weather View 32 v70,2013-05-15 03:42:00,
2013-05-14 22:47:00,71.6,57.8,30.60,SE,141,5.0,11.0,62,0.00,,,0.00,Weather View 32 v70,2013-05-15 03:47:00,
2013-05-14 22:52:00,71.7,58.4,30.60,SE,141,5.0,11.0,63,0.00,,,0.00,Weather View 32 v70,2013-05-15 03:52:00,
2013-05-14 22:57:00,71.6,58.3,30.60,SE,141,5.0,11.0,63,0.00,,,0.00,Weather View 32 v70,2013-05-15 03:57:00,
2013-05-14 23:01:00,71.7,58.4,30.60,SE,141,7.0,14.0,63,0.00,,,0.00,Weather View 32 v70,2013-05-15 04:01:00,
2013-05-14 23:06:00,71.6,58.7,30.60,South,186,6.0,14.0,64,0.00,,,0.00,Weather View 32 v70,2013-05-15 04:06:00,
2013-05-14 23:11:00,71.8,58.9,30.61,ESE,118,5.0,14.0,64,0.00,,,0.00,Weather View 32 v70,2013-05-15 04:11:00,
2013-05-14 23:16:00,71.7,58.8,30.61,South,186,6.0,14.0,64,0.00,,,0.00,Weather View 32 v70,2013-05-15 04:16:00,
2013-05-14 23:21:00,71.9,59.5,30.61,SSE,163,6.0,14.0,65,0.00,,,0.00,Weather View 32 v70,2013-05-15 04:21:00,
2013-05-14 23:26:00,71.9,59.5,30.61,SE,141,6.0,14.0,65,0.00,,,0.00,Weather View 32 v70,2013-05-15 04:26:00,
2013-05-14 23:31:00,71.8,59.4,30.61,SE,141,8.0,14.0,65,0.00,,,0.00,Weather View 32 v70,2013-05-15 04:31:00,
2013-05-14 23:36:00,71.7,59.7,30.61,SSE,163,8.0,14.0,66,0.00,,,0.00,Weather View 32 v70,2013-05-15 04:36:00,
2013-05-14 23:41:00,71.4,59.4,30.62,SSE,163,4.0,14.0,66,0.00,,,0.00,Weather View 32 v70,2013-05-15 04:41:00,
2013-05-14 23:46:00,71.1,59.5,30.61,SSE,163,8.0,14.0,67,0.00,,,0.00,Weather View 32 v70,2013-05-15 04:46:00,
2013-05-14 23:51:00,71.0,59.5,30.61,SE,141,7.0,14.0,67,0.00,,,0.00,Weather View 32 v70,2013-05-15 04:51:00,
2013-05-14 23:56:00,70.9,59.8,30.61,SE,141,5.0,14.0,68,0.00,,,0.00,Weather View 32 v70,2013-05-15 04:56:00,